Location: Kershaw
(34.5481°N, 80.5823°W)
Time: 20:56:57
(UTC+00:00)

Vanguard 2 Rocket - Pass Details

Date: 30 September 2022
Orbit: 555 x 3321 km, 32.9° (Epoch: 28 November)

Event Time Altitude Azimuth Distance (km) Brightness Sun altitude
Exits shadow 09:20:28 47° 179° (S) 918 6.7 -24.5°
Drops below altitude 10° 09:24:02 10° 125° (SE) 1,919 9.1 -23.8°
Sets 09:26:04 0° 119° (ESE) 2,741 10.1 -23.4°
